08-06-2022, 00:00:03,    157,    0.5,   11.8,   0.00,   0.00, 1004.2,   95.4, -999.0
08-06-2022, 00:00:13,    150,    0.2,   11.9,   0.00,   0.00, 1004.1,   95.1, -999.0
08-06-2022, 00:00:23,    144,    1.0,   12.0,   0.00,   0.00, 1004.2,   95.3, -999.0
08-06-2022, 00:00:33,    136,    1.9,   11.9,   0.00,   0.00, 1004.2,   95.5, -999.0
08-06-2022, 00:00:43,    151,    1.0,   12.0,   0.00,   0.00, 1004.2,   95.4, -999.0
08-06-2022, 00:00:53,    157,    2.2,   12.0,   0.00,   0.01, 1004.2,   95.5, -999.0
08-06-2022, 00:01:03,    153,    2.2,   11.9,   0.00,   0.00, 1004.2,   95.3, -999.0
08-06-2022, 00:01:13,    146,    1.6,   11.9,   0.00,   0.00, 1004.2,   95.4, -999.0
08-06-2022, 00:01:23,    161,    0.6,   11.8,   0.00,   0.00, 1004.1,   95.2, -999.0
08-06-2022, 00:01:33,    162,    0.0,   11.8,   0.00,   0.00, 1004.0,   94.9, -999.0
08-06-2022, 00:01:43,    162,    0.0,   11.8,   0.00,   0.00, 1004.0,   95.2, -999.0
08-06-2022, 00:01:52,    162,    0.3,   11.8,   0.00,   0.00, 1004.1,   95.4, -999.0
08-06-2022, 00:02:03,    160,    1.4,   11.9,   0.00,   0.00, 1004.2,   95.6, -999.0
08-06-2022, 00:02:12,    181,    1.1,   11.9,   0.00,   0.00, 1004.1,   95.5, -999.0
08-06-2022, 00:02:22,    177,    0.0,   11.8,   0.00,   0.00, 1004.0,   95.2, -999.0
08-06-2022, 00:02:32,    168,    0.6,   11.8,   0.00,   0.00, 1004.1,   95.9, -999.0
08-06-2022, 00:02:42,    163,    0.3,   11.9,   0.00,   0.00, 1004.0,   95.6, -999.0
08-06-2022, 00:02:52,    160,    0.3,   11.9,   0.00,   0.00, 1004.1,   95.7, -999.0
08-06-2022, 00:03:02,    123,    0.8,   11.9,   0.00,   0.00, 1004.2,   96.0, -999.0
08-06-2022, 00:03:12,    123,    0.1,   11.9,   0.00,   0.00, 1004.1,   95.9, -999.0
08-06-2022, 00:03:22,    122,    0.0,   11.7,   0.00,   0.01, 1004.0,   95.5, -999.0
08-06-2022, 00:03:32,    122,    0.0,   11.8,   0.00,   0.00, 1004.0,   95.7, -999.0
08-06-2022, 00:03:42,    123,    0.0,   11.8,   0.00,   0.00, 1004.0,   95.6, -999.0
08-06-2022, 00:03:52,    160,    0.0,   11.8,   0.00,   0.00, 1004.0,   95.6, -999.0
08-06-2022, 00:04:02,    160,    0.0,   11.8,   0.00,   0.00, 1004.0,   95.7, -999.0
08-06-2022, 00:04:12,    160,    0.3,   11.8,   0.00,   0.00, 1004.1,   96.0, -999.0
08-06-2022, 00:04:22,    160,    0.0,   11.8,   0.00,   0.00, 1004.0,   95.7, -999.0
08-06-2022, 00:04:32,    160,    0.0,   11.8,   0.00,   0.00, 1004.0,   95.6, -999.0
08-06-2022, 00:04:42,    160,    0.0,   11.7,   0.00,   0.01, 1004.0,   95.7, -999.0
08-06-2022, 00:04:51,    160,    0.0,   11.8,   0.00,   0.00, 1004.0,   95.8, -999.0
08-06-2022, 00:05:01,    160,    0.0,   11.7,   0.00,   0.00, 1004.0,   95.9, -999.0
08-06-2022, 00:05:12,    160,    0.0,   11.8,   0.00,   0.00, 1004.0,   96.0, -999.0
08-06-2022, 00:05:21,    160,    0.2,   11.9,   0.00,   0.00, 1004.1,   96.2, -999.0
08-06-2022, 00:05:31,    160,    0.0,   11.8,   0.00,   0.00, 1004.0,   96.0, -999.0
08-06-2022, 00:05:41,    160,    0.8,   11.9,   0.00,   0.00, 1004.1,   96.3, -999.0
08-06-2022, 00:05:51,    161,    0.1,   11.8,   0.00,   0.00, 1004.0,   96.2, -999.0
08-06-2022, 00:06:01,    142,    0.8,   11.9,   0.00,   0.01, 1004.1,   96.4, -999.0
08-06-2022, 00:06:11,    141,    0.2,   11.8,   0.00,   0.00, 1004.0,   96.1, -999.0
08-06-2022, 00:06:21,    141,    0.0,   11.8,   0.00,   0.00, 1004.0,   96.0, -999.0
08-06-2022, 00:06:31,    133,    0.1,   11.9,   0.00,   0.00, 1003.9,   96.2, -999.0
08-06-2022, 00:06:41,    142,    0.8,   11.9,   0.00,   0.00, 1004.1,   96.7, -999.0
08-06-2022, 00:06:51,    142,    0.2,   11.9,   0.00,   0.01, 1004.0,   96.6, -999.0
08-06-2022, 00:07:01,    147,    1.2,   11.9,   0.00,   0.00, 1004.0,   97.0, -999.0
08-06-2022, 00:07:11,    159,    0.4,   11.9,   0.00,   0.00, 1004.0,   96.6, -999.0
08-06-2022, 00:07:21,    159,    0.1,   11.8,   0.00,   0.00, 1004.0,   96.7, -999.0
08-06-2022, 00:07:30,    159,    0.1,   11.9,   0.00,   0.00, 1003.9,   96.6, -999.0
08-06-2022, 00:07:41,    159,    0.0,   11.8,   0.00,   0.00, 1003.9,   96.6, -999.0
08-06-2022, 00:07:51,    158,    0.0,   11.8,   0.00,   0.00, 1003.9,   96.5, -999.0
08-06-2022, 00:08:00,    158,    0.0,   11.9,   0.00,   0.01, 1003.9,   96.6, -999.0
08-06-2022, 00:08:10,    159,    0.0,   11.9,   0.00,   0.00, 1003.8,   96.7, -999.0
08-06-2022, 00:08:21,    145,    0.3,   11.9,   0.00,   0.01, 1003.9,   96.8, -999.0
08-06-2022, 00:08:30,    189,    1.0,   11.9,   0.00,   0.00, 1004.0,   97.1, -999.0
08-06-2022, 00:08:40,    140,    0.8,   11.9,   0.00,   0.00, 1004.0,   97.1, -999.0
08-06-2022, 00:08:50,    141,    1.2,   11.9,   0.00,   0.01, 1004.0,   97.1, -999.0
08-06-2022, 00:09:00,    141,    0.3,   11.9,   0.00,   0.00, 1003.9,   96.8, -999.0
08-06-2022, 00:09:10,    139,    0.3,   11.8,   0.00,   0.01, 1003.9,   96.8, -999.0
08-06-2022, 00:09:20,    140,    0.5,   11.9,   0.00,   0.00, 1003.9,   97.0, -999.0
08-06-2022, 00:09:30,    140,    0.0,   11.8,   0.00,   0.00, 1003.8,   96.8, -999.0
08-06-2022, 00:09:40,    139,    0.0,   11.8,   0.00,   0.01, 1003.8,   96.8, -999.0
08-06-2022, 00:09:50,    143,    0.0,   11.8,   0.00,   0.00, 1003.8,   96.7, -999.0
08-06-2022, 00:10:00,    143,    0.0,   11.9,   0.00,   0.00, 1003.8,   96.9, -999.0
08-06-2022, 00:10:10,    143,    0.2,   11.9,   0.00,   0.00, 1003.9,   97.2, -999.0
08-06-2022, 00:10:20,    174,    0.2,   11.9,   0.00,   0.01, 1003.9,   97.3, -999.0
08-06-2022, 00:10:30,    174,    0.0,   11.7,   0.00,   0.00, 1003.8,   97.0, -999.0
08-06-2022, 00:10:40,    173,    0.0,   11.7,   0.00,   0.00, 1003.8,   97.0, -999.0
08-06-2022, 00:10:50,    172,    0.2,   11.9,   0.00,   0.00, 1003.9,   97.2, -999.0
08-06-2022, 00:11:00,    106,    1.2,   11.8,   0.00,   0.01, 1003.8,   97.3, -999.0
08-06-2022, 00:11:09,    117,    1.5,   11.9,   0.00,   0.00, 1003.8,   97.5, -999.0
08-06-2022, 00:11:20,    125,    1.0,   12.0,   0.00,   0.00, 1003.8,   97.6, -999.0
08-06-2022, 00:11:29,    123,    1.0,   12.0,   0.00,   0.00, 1003.8,   97.6, -999.0
08-06-2022, 00:11:39,    122,    1.4,   12.0,   0.00,   0.00, 1003.8,   97.7, -999.0
08-06-2022, 00:11:49,    122,    0.3,   11.9,   0.00,   0.01, 1003.8,   97.5, -999.0
08-06-2022, 00:11:59,    124,    0.0,   11.7,   0.00,   0.00, 1003.7,   97.2, -999.0
08-06-2022, 00:12:09,    141,    0.3,   12.0,   0.00,   0.00, 1003.7,   97.7, -999.0
08-06-2022, 00:12:19,    140,    0.1,   11.9,   0.00,   0.00, 1003.7,   97.6, -999.0
08-06-2022, 00:12:29,    140,    0.1,   11.9,   0.00,   0.00, 1003.7,   97.5, -999.0
08-06-2022, 00:12:39,    124,    0.8,   11.9,   0.00,   0.01, 1003.7,   97.7, -999.0
08-06-2022, 00:12:49,    102,    1.2,   12.0,   0.00,   0.00, 1003.8,   98.0, -999.0
08-06-2022, 00:12:59,    119,    0.4,   12.0,   0.00,   0.00, 1003.7,   97.8, -999.0
08-06-2022, 00:13:09,    141,    0.9,   12.0,   0.00,   0.00, 1003.7,   98.0, -999.0
08-06-2022, 00:13:19,    141,    0.1,   11.9,   0.00,   0.00, 1003.6,   97.6, -999.0
08-06-2022, 00:13:29,    142,    0.7,   11.9,   0.00,   0.00, 1003.7,   97.8, -999.0
08-06-2022, 00:13:39,    162,    0.7,   11.9,   0.00,   0.00, 1003.8,   97.8, -999.0
08-06-2022, 00:13:49,    162,    0.1,   11.9,   0.00,   0.01, 1003.7,   97.5, -999.0
08-06-2022, 00:13:59,    162,    0.2,   11.9,   0.00,   0.00, 1003.7,   97.6, -999.0
08-06-2022, 00:14:08,    100,    0.9,   11.8,   0.00,   0.00, 1003.7,   97.8, -999.0
08-06-2022, 00:14:18,    113,    0.5,   11.9,   0.00,   0.00, 1003.7,   97.9, -999.0
08-06-2022, 00:14:29,    121,    0.4,   12.0,   0.00,   0.00, 1003.7,   98.0, -999.0
08-06-2022, 00:14:38,    126,    0.6,   12.0,   0.00,   0.00, 1003.7,   97.9, -999.0
08-06-2022, 00:14:48,    126,    0.0,   11.9,   0.00,   0.00, 1003.6,   97.6, -999.0
08-06-2022, 00:14:58,    125,    0.0,   11.9,   0.00,   0.00, 1003.7,   97.8, -999.0
08-06-2022, 00:15:08,    196,    0.1,   11.9,   0.00,   0.00, 1003.7,   98.0, -999.0
08-06-2022, 00:15:18,    195,    0.3,   11.9,   0.00,   0.00, 1003.7,   98.1, -999.0
08-06-2022, 00:15:28,    195,    0.0,   11.8,   0.00,   0.00, 1003.6,   97.6, -999.0
08-06-2022, 00:15:38,    195,    0.0,   11.8,   0.00,   0.01, 1003.6,   97.6, -999.0
08-06-2022, 00:15:48,    195,    0.0,   11.8,   0.00,   0.00, 1003.6,   97.5, -999.0
08-06-2022, 00:15:58,    122,    0.8,   11.8,   0.00,   0.00, 1003.7,   98.0, -999.0
08-06-2022, 00:16:08,    121,    0.9,   12.0,   0.00,   0.00, 1003.7,   98.2, -999.0
08-06-2022, 00:16:18,     97,    1.2,   12.0,   0.00,   0.00, 1003.7,   98.1, -999.0
08-06-2022, 00:16:28,    119,    0.2,   11.9,   0.00,   0.00, 1003.7,   98.3, -999.0
08-06-2022, 00:16:38,    119,    0.0,   11.9,   0.00,   0.00, 1003.6,   97.9, -999.0
08-06-2022, 00:16:47,    121,    0.0,   11.9,   0.00,   0.00, 1003.6,   97.9, -999.0
08-06-2022, 00:16:58,    118,    0.0,   12.0,   0.00,   0.00, 1003.6,   97.9, -999.0
08-06-2022, 00:17:08,    119,    0.0,   12.0,   0.00,   0.00, 1003.7,   98.4, -999.0
08-06-2022, 00:17:17,    120,    0.2,   12.1,   0.00,   0.00, 1003.7,   98.6, -999.0
08-06-2022, 00:17:27,    120,    0.5,   12.0,   0.00,   0.00, 1003.7,   98.5, -999.0
08-06-2022, 00:17:38,    123,    0.3,   12.0,   0.00,   0.00, 1003.7,   98.4, -999.0
08-06-2022, 00:17:47,    124,    1.0,   11.9,   0.00,   0.00, 1003.7,   98.0, -999.0
08-06-2022, 00:17:57,    124,    1.7,   12.0,   0.00,   0.00, 1003.8,   98.3, -999.0
08-06-2022, 00:18:07,    109,    1.4,   11.9,   0.00,   0.00, 1003.7,   98.4, -999.0
08-06-2022, 00:18:17,    109,    0.1,   11.9,   0.00,   0.01, 1003.7,   98.0, -999.0
08-06-2022, 00:18:27,    109,    0.1,   11.9,   0.00,   0.00, 1003.7,   98.1, -999.0
08-06-2022, 00:18:37,    110,    0.0,   11.9,   0.00,   0.00, 1003.6,   98.1, -999.0
08-06-2022, 00:18:47,    110,    0.0,   11.9,   0.00,   0.00, 1003.6,   98.1, -999.0
08-06-2022, 00:18:57,    153,    1.4,   11.9,   0.00,   0.00, 1003.8,   98.5, -999.0
08-06-2022, 00:19:07,    154,    0.8,   12.0,   0.00,   0.00, 1003.8,   98.3, -999.0
08-06-2022, 00:19:17,    153,    0.2,   11.9,   0.00,   0.00, 1003.7,   98.1, -999.0
08-06-2022, 00:19:27,    154,    0.0,   11.9,   0.00,   0.00, 1003.6,   98.1, -999.0
08-06-2022, 00:19:37,    154,    0.0,   11.8,   0.00,   0.00, 1003.6,   98.0, -999.0
08-06-2022, 00:19:47,    154,    0.0,   11.8,   0.00,   0.00, 1003.7,   97.9, -999.0
08-06-2022, 00:19:56,    154,    0.0,   11.8,   0.00,   0.00, 1003.6,   98.0, -999.0
08-06-2022, 00:20:07,    154,    0.0,   11.8,   0.00,   0.00, 1003.6,   98.1, -999.0
08-06-2022, 00:20:17,    154,    0.0,   11.9,   0.00,   0.00, 1003.7,   98.1, -999.0
08-06-2022, 00:20:26,    154,    0.0,   11.9,   0.00,   0.01, 1003.7,   98.1, -999.0
08-06-2022, 00:20:37,    154,    0.0,   11.8,   0.00,   0.00, 1003.7,   98.3, -999.0
08-06-2022, 00:20:46,    154,    0.0,   11.9,   0.00,   0.00, 1003.7,   98.3, -999.0
08-06-2022, 00:20:56,    153,    0.0,   11.9,   0.00,   0.00, 1003.7,   98.3, -999.0
08-06-2022, 00:21:06,    153,    0.0,   11.9,   0.00,   0.00, 1003.6,   98.3, -999.0
08-06-2022, 00:21:16,    153,    0.0,   11.9,   0.00,   0.00, 1003.7,   98.3, -999.0
08-06-2022, 00:21:26,    153,    0.0,   11.9,   0.00,   0.00, 1003.7,   98.3, -999.0
08-06-2022, 00:21:36,    153,    0.0,   11.8,   0.00,   0.00, 1003.7,   98.4, -999.0
08-06-2022, 00:21:46,    154,    0.0,   11.7,   0.00,   0.00, 1003.6,   98.4, -999.0
08-06-2022, 00:21:56,    153,    0.0,   11.8,   0.00,   0.00, 1003.7,   98.3, -999.0
08-06-2022, 00:22:06,    163,    1.0,   11.9,   0.00,   0.00, 1003.8,   98.5, -999.0
08-06-2022, 00:22:16,    163,    0.1,   11.8,   0.00,   0.00, 1003.8,   98.4, -999.0
08-06-2022, 00:22:26,    163,    0.0,   11.8,   0.00,   0.00, 1003.7,   98.2, -999.0
08-06-2022, 00:22:36,    163,    0.0,   11.9,   0.00,   0.00, 1003.7,   98.2, -999.0
08-06-2022, 00:22:46,    164,    0.0,   11.8,   0.00,   0.00, 1003.7,   98.3, -999.0
08-06-2022, 00:22:56,    150,    1.3,   11.9,   0.00,   0.00, 1003.8,   98.7, -999.0
08-06-2022, 00:23:06,    150,    0.6,   12.0,   0.00,   0.00, 1003.8,   98.8, -999.0
08-06-2022, 00:23:16,    151,    0.0,   11.8,   0.00,   0.00, 1003.7,   98.4, -999.0
08-06-2022, 00:23:26,    161,    0.8,   11.8,   0.00,   0.00, 1003.8,   98.5, -999.0
08-06-2022, 00:23:35,    220,    1.6,   11.8,   0.00,   0.00, 1003.8,   98.6, -999.0
08-06-2022, 00:23:46,    144,    0.1,   11.7,   0.00,   0.00, 1003.7,   98.4, -999.0
08-06-2022, 00:23:55,    144,    0.8,   11.8,   0.00,   0.00, 1003.8,   98.4, -999.0
08-06-2022, 00:24:05,    155,    0.7,   11.8,   0.00,   0.00, 1003.8,   98.7, -999.0
08-06-2022, 00:24:15,    155,    0.7,   11.9,   0.00,   0.00, 1003.8,   98.8, -999.0
08-06-2022, 00:24:25,    155,    0.9,   11.9,   0.00,   0.00, 1003.8,   98.9, -999.0
08-06-2022, 00:24:35,    140,    0.5,   11.9,   0.00,   0.00, 1003.7,   99.0, -999.0
08-06-2022, 00:24:45,    142,    0.3,   11.9,   0.00,   0.00, 1003.7,   99.0, -999.0
08-06-2022, 00:24:55,    142,    0.0,   11.9,   0.00,   0.00, 1003.7,   98.7, -999.0
08-06-2022, 00:25:05,    142,    0.0,   11.8,   0.00,   0.00, 1003.6,   98.8, -999.0
08-06-2022, 00:25:15,    167,    0.6,   11.8,   0.00,   0.00, 1003.7,   98.9, -999.0
08-06-2022, 00:25:25,    150,    1.8,   11.9,   0.00,   0.00, 1003.8,   99.2, -999.0
08-06-2022, 00:25:35,    159,    2.8,   11.8,   0.00,   0.00, 1003.8,   98.9, -999.0
08-06-2022, 00:25:45,    172,    0.9,   11.8,   0.00,   0.00, 1003.8,   98.9, -999.0
08-06-2022, 00:25:55,    171,    0.0,   11.7,   0.00,   0.00, 1003.7,   98.5, -999.0
08-06-2022, 00:26:05,    171,    0.0,   11.7,   0.00,   0.00, 1003.6,   98.4, -999.0
08-06-2022, 00:26:15,    171,    0.0,   11.8,   0.00,   0.00, 1003.7,   98.4, -999.0
08-06-2022, 00:26:25,    171,    0.0,   11.8,   0.00,   0.00, 1003.7,   98.7, -999.0
08-06-2022, 00:26:34,    170,    0.0,   11.6,   0.00,   0.00, 1003.7,   98.7, -999.0
08-06-2022, 00:26:44,    126,    0.3,   11.7,   0.00,   0.00, 1003.7,   98.9, -999.0
08-06-2022, 00:26:55,    142,    0.6,   11.9,   0.00,   0.00, 1003.8,   99.0, -999.0
08-06-2022, 00:27:04,    160,    0.7,   11.8,   0.00,   0.00, 1003.7,   99.0, -999.0
08-06-2022, 00:27:14,    199,    1.0,   11.8,   0.00,   0.00, 1003.8,   99.1, -999.0
08-06-2022, 00:27:24,    199,    0.3,   11.7,   0.00,   0.00, 1003.7,   98.8, -999.0
08-06-2022, 00:27:34,    198,    0.0,   11.7,   0.00,   0.00, 1003.7,   98.9, -999.0
08-06-2022, 00:27:44,    197,    0.0,   11.7,   0.00,   0.00, 1003.6,   98.7, -999.0
08-06-2022, 00:27:54,    134,    0.3,   11.7,   0.00,   0.00, 1003.7,   98.8, -999.0
08-06-2022, 00:28:04,    143,    0.6,   11.8,   0.00,   0.00, 1003.7,   98.9, -999.0
08-06-2022, 00:28:14,    146,    0.1,   11.8,   0.00,   0.00, 1003.7,   99.0, -999.0
08-06-2022, 00:28:24,    145,    0.0,   11.8,   0.00,   0.00, 1003.7,   99.0, -999.0
08-06-2022, 00:28:34,    146,    0.0,   11.7,   0.00,   0.00, 1003.6,   98.7, -999.0
08-06-2022, 00:28:44,    144,    0.0,   11.7,   0.00,   0.00, 1003.6,   98.7, -999.0
08-06-2022, 00:28:54,    145,    0.0,   11.6,   0.00,   0.00, 1003.6,   98.7, -999.0
08-06-2022, 00:29:04,    146,    0.0,   11.7,   0.00,   0.00, 1003.6,   98.8, -999.0
08-06-2022, 00:29:13,    145,    0.0,   11.8,   0.00,   0.00, 1003.6,   98.7, -999.0
08-06-2022, 00:29:24,    145,    0.0,   11.8,   0.00,   0.00, 1003.6,   98.7, -999.0
08-06-2022, 00:29:34,    145,    0.0,   11.8,   0.00,   0.00, 1003.6,   98.7, -999.0
08-06-2022, 00:29:43,    146,    0.0,   11.8,   0.00,   0.00, 1003.6,   98.7, -999.0
08-06-2022, 00:29:53,    145,    0.0,   11.8,   0.00,   0.00, 1003.6,   98.7, -999.0
08-06-2022, 00:30:04,    145,    0.0,   11.9,   0.00,   0.00, 1003.6,   98.8, -999.0
08-06-2022, 00:30:13,    145,    0.0,   11.8,   0.00,   0.00, 1003.6,   98.7, -999.0
08-06-2022, 00:30:23,    145,    0.0,   11.8,   0.00,   0.00, 1003.6,   98.6, -999.0
08-06-2022, 00:30:33,    145,    0.0,   11.7,   0.00,   0.00, 1003.6,   98.7, -999.0
08-06-2022, 00:30:43,    146,    0.0,   11.8,   0.00,   0.00, 1003.6,   98.7, -999.0
08-06-2022, 00:30:53,    145,    0.0,   11.9,   0.00,   0.00, 1003.6,   98.8, -999.0
08-06-2022, 00:31:03,    144,    0.0,   11.9,   0.00,   0.00, 1003.6,   98.7, -999.0
08-06-2022, 00:31:13,    148,    0.0,   12.0,   0.00,   0.00, 1003.6,   98.8, -999.0
08-06-2022, 00:31:23,    148,    0.0,   11.8,   0.00,   0.00, 1003.6,   98.8, -999.0
08-06-2022, 00:31:33,    148,    0.0,   11.8,   0.00,   0.00, 1003.6,   98.7, -999.0
08-06-2022, 00:31:43,    148,    0.0,   11.8,   0.00,   0.00, 1003.6,   98.7, -999.0
08-06-2022, 00:31:53,    148,    0.0,   11.8,   0.00,   0.00, 1003.6,   98.7, -999.0
08-06-2022, 00:32:03,    147,    0.0,   11.9,   0.00,   0.00, 1003.7,   98.7, -999.0
08-06-2022, 00:32:13,    147,    0.0,   11.8,   0.00,   0.00, 1003.6,   98.8, -999.0
08-06-2022, 00:32:22,    147,    0.0,   11.8,   0.00,   0.00, 1003.6,   98.7, -999.0
08-06-2022, 00:32:33,    147,    0.0,   11.8,   0.00,   0.00, 1003.6,   98.7, -999.0
08-06-2022, 00:32:43,    147,    0.0,   11.8,   0.00,   0.00, 1003.7,   98.7, -999.0
08-06-2022, 00:32:52,    147,    0.0,   11.9,   0.00,   0.00, 1003.6,   98.8, -999.0
08-06-2022, 00:33:03,    147,    0.0,   11.9,   0.00,   0.00, 1003.7,   98.7, -999.0
08-06-2022, 00:33:12,    147,    0.0,   11.9,   0.00,   0.00, 1003.6,   98.7, -999.0
08-06-2022, 00:33:22,    148,    0.0,   11.9,   0.00,   0.00, 1003.6,   98.7, -999.0
08-06-2022, 00:33:32,    148,    0.0,   11.8,   0.00,   0.00, 1003.6,   98.7, -999.0
08-06-2022, 00:33:42,    148,    0.0,   11.8,   0.00,   0.00, 1003.6,   98.6, -999.0
08-06-2022, 00:33:52,    148,    0.0,   11.9,   0.00,   0.00, 1003.6,   98.8, -999.0
08-06-2022, 00:34:02,    148,    0.0,   11.8,   0.00,   0.00, 1003.6,   98.8, -999.0
08-06-2022, 00:34:12,    148,    0.0,   11.7,   0.00,   0.00, 1003.6,   98.8, -999.0
08-06-2022, 00:34:22,    165,    0.4,   11.8,   0.00,   0.00, 1003.7,   99.0, -999.0
08-06-2022, 00:34:32,    165,    0.0,   11.8,   0.00,   0.00, 1003.7,   98.8, -999.0
08-06-2022, 00:34:42,    164,    0.1,   11.8,   0.00,   0.01, 1003.7,   99.0, -999.0
08-06-2022, 00:34:52,    164,    0.0,   11.8,   0.00,   0.00, 1003.7,   98.7, -999.0
08-06-2022, 00:35:02,    164,    0.0,   11.7,   0.00,   0.00, 1003.7,   98.7, -999.0
08-06-2022, 00:35:12,    185,    0.0,   11.8,   0.00,   0.00, 1003.6,   98.7, -999.0
08-06-2022, 00:35:22,    186,    0.7,   11.8,   0.00,   0.00, 1003.8,   99.1, -999.0
08-06-2022, 00:35:31,    187,    0.0,   11.8,   0.00,   0.00, 1003.6,   98.8, -999.0
08-06-2022, 00:35:42,    187,    0.0,   11.7,   0.00,   0.00, 1003.6,   98.7, -999.0
08-06-2022, 00:35:51,    186,    0.0,   11.8,   0.00,   0.00, 1003.6,   98.8, -999.0
08-06-2022, 00:36:01,    186,    0.0,   11.9,   0.00,   0.00, 1003.6,   98.8, -999.0
08-06-2022, 00:36:12,    187,    0.0,   11.9,   0.00,   0.00, 1003.6,   98.8, -999.0
08-06-2022, 00:36:21,    187,    0.0,   11.8,   0.00,   0.00, 1003.6,   98.7, -999.0
08-06-2022, 00:36:31,    186,    0.0,   11.9,   0.00,   0.00, 1003.6,   98.7, -999.0
08-06-2022, 00:36:41,    187,    0.0,   11.8,   0.00,   0.00, 1003.6,   98.7, -999.0
08-06-2022, 00:36:51,    187,    0.2,   11.9,   0.00,   0.00, 1003.7,   99.0, -999.0
08-06-2022, 00:37:01,    187,    0.0,   11.9,   0.00,   0.00, 1003.6,   98.7, -999.0
08-06-2022, 00:37:11,    187,    0.1,   11.8,   0.00,   0.00, 1003.7,   99.1, -999.0
08-06-2022, 00:37:21,    187,    0.1,   11.8,   0.00,   0.00, 1003.6,   98.9, -999.0
08-06-2022, 00:37:31,    163,    0.5,   11.9,   0.00,   0.00, 1003.7,   99.1, -999.0
08-06-2022, 00:37:41,    163,    0.0,   11.8,   0.00,   0.00, 1003.6,   98.9, -999.0
08-06-2022, 00:37:51,    163,    0.0,   11.8,   0.00,   0.00, 1003.6,   98.8, -999.0
08-06-2022, 00:38:01,    163,    0.0,   11.7,   0.00,   0.00, 1003.5,   98.7, -999.0
08-06-2022, 00:38:11,    163,    0.0,   11.7,   0.00,   0.00, 1003.6,   98.8, -999.0
08-06-2022, 00:38:24,    162,    0.0,   11.8,   0.00,   0.00, 1003.5,   98.7, -999.0
08-06-2022, 00:38:31,    162,    0.1,   11.9,   0.00,   0.00, 1003.6,   99.0, -999.0
08-06-2022, 00:38:40,    162,    0.0,   11.8,   0.00,   0.00, 1003.5,   98.8, -999.0
08-06-2022, 00:38:51,    162,    0.1,   11.8,   0.00,   0.00, 1003.6,   98.8, -999.0
08-06-2022, 00:39:00,    163,    0.6,   11.8,   0.00,   0.00, 1003.7,   98.9, -999.0
08-06-2022, 00:39:10,    110,    1.1,   11.9,   0.00,   0.00, 1003.7,   99.1, -999.0
08-06-2022, 00:39:21,    117,    0.7,   11.9,   0.00,   0.00, 1003.7,   99.2, -999.0
08-06-2022, 00:39:30,    117,    0.0,   11.7,   0.00,   0.00, 1003.5,   98.8, -999.0
08-06-2022, 00:39:40,    149,    0.3,   11.9,   0.00,   0.00, 1003.6,   99.0, -999.0
08-06-2022, 00:39:50,    149,    0.4,   12.0,   0.00,   0.00, 1003.7,   99.1, -999.0
08-06-2022, 00:40:00,    161,    0.0,   11.8,   0.00,   0.00, 1003.5,   98.8, -999.0
08-06-2022, 00:40:10,    145,    1.4,   11.9,   0.00,   0.00, 1003.7,   99.1, -999.0
08-06-2022, 00:40:20,    167,    1.8,   11.9,   0.00,   0.00, 1003.7,   99.1, -999.0
08-06-2022, 00:40:30,    152,    0.6,   11.9,   0.00,   0.00, 1003.7,   99.3, -999.0
08-06-2022, 00:40:40,    135,    1.1,   11.9,   0.00,   0.00, 1003.7,   99.1, -999.0
08-06-2022, 00:40:50,    170,    1.7,   11.9,   0.00,   0.00, 1003.7,   99.2, -999.0
08-06-2022, 00:41:00,    160,    0.6,   11.8,   0.00,   0.00, 1003.6,   99.0, -999.0
08-06-2022, 00:41:10,    160,    0.2,   11.8,   0.00,   0.00, 1003.6,   98.9, -999.0
08-06-2022, 00:41:20,    160,    0.0,   11.8,   0.00,   0.00, 1003.5,   98.8, -999.0
08-06-2022, 00:41:30,    147,    0.6,   11.8,   0.00,   0.00, 1003.5,   98.9, -999.0
08-06-2022, 00:41:39,    147,    1.1,   11.9,   0.00,   0.00, 1003.6,   99.1, -999.0
08-06-2022, 00:41:49,    159,    0.3,   11.8,   0.00,   0.00, 1003.7,   99.1, -999.0
08-06-2022, 00:42:00,    152,    1.9,   11.8,   0.00,   0.00, 1003.6,   99.0, -999.0
08-06-2022, 00:42:09,    152,    0.6,   11.8,   0.00,   0.00, 1003.6,   99.0, -999.0
08-06-2022, 00:42:19,    168,    0.7,   11.9,   0.00,   0.00, 1003.6,   99.0, -999.0
08-06-2022, 00:42:30,    136,    1.2,   11.9,   0.00,   0.00, 1003.6,   99.1, -999.0
08-06-2022, 00:42:39,    136,    0.6,   11.8,   0.00,   0.00, 1003.6,   99.2, -999.0
08-06-2022, 00:42:49,    141,    0.1,   11.8,   0.00,   0.00, 1003.5,   99.0, -999.0
08-06-2022, 00:42:59,    146,    0.6,   11.8,   0.00,   0.00, 1003.5,   99.0, -999.0
08-06-2022, 00:43:09,    148,    0.8,   11.8,   0.00,   0.00, 1003.6,   99.0, -999.0
08-06-2022, 00:43:19,    150,    0.0,   11.8,   0.00,   0.00, 1003.5,   98.8, -999.0
08-06-2022, 00:43:29,    146,    0.2,   11.8,   0.00,   0.00, 1003.5,   98.9, -999.0
08-06-2022, 00:43:39,    146,    0.0,   11.8,   0.00,   0.00, 1003.5,   98.9, -999.0
08-06-2022, 00:43:49,    146,    0.0,   11.6,   0.00,   0.00, 1003.4,   98.8, -999.0
08-06-2022, 00:43:59,    152,    0.0,   11.8,   0.00,   0.00, 1003.4,   98.9, -999.0
08-06-2022, 00:44:09,    150,    0.0,   11.7,   0.00,   0.00, 1003.4,   98.8, -999.0
08-06-2022, 00:44:18,    183,    0.4,   11.8,   0.00,   0.00, 1003.5,   98.8, -999.0
08-06-2022, 00:44:29,    161,    1.8,   11.9,   0.00,   0.00, 1003.6,   99.2, -999.0
08-06-2022, 00:44:39,    163,    0.7,   11.8,   0.00,   0.00, 1003.6,   99.1, -999.0
08-06-2022, 00:44:48,    154,    2.0,   11.9,   0.00,   0.00, 1003.6,   99.2, -999.0
08-06-2022, 00:44:59,    152,    0.5,   11.8,   0.00,   0.00, 1003.5,   99.0, -999.0
08-06-2022, 00:45:09,    152,    0.0,   11.7,   0.00,   0.00, 1003.4,   98.6, -999.0
08-06-2022, 00:45:18,    152,    0.1,   11.7,   0.00,   0.00, 1003.5,   98.8, -999.0
08-06-2022, 00:45:28,    152,    0.3,   11.9,   0.00,   0.00, 1003.6,   99.1, -999.0
08-06-2022, 00:45:38,    130,    0.6,   11.7,   0.00,   0.00, 1003.5,   99.1, -999.0
08-06-2022, 00:45:48,    161,    2.4,   11.8,   0.00,   0.00, 1003.5,   99.1, -999.0
08-06-2022, 00:45:58,    182,    1.6,   11.8,   0.00,   0.00, 1003.6,   99.2, -999.0
08-06-2022, 00:46:08,    153,    1.1,   11.8,   0.00,   0.00, 1003.5,   99.1, -999.0
08-06-2022, 00:46:18,    162,    3.3,   11.9,   0.00,   0.00, 1003.5,   99.1, -999.0
08-06-2022, 00:46:28,    149,    0.9,   11.8,   0.00,   0.00, 1003.5,   99.2, -999.0
08-06-2022, 00:46:38,    136,    1.4,   11.7,   0.00,   0.00, 1003.5,   99.0, -999.0